Regional Weather Roundup
Issued by NWS Sioux Falls, SD

Home | Current Version | Previous Version | Text Only | Print | Product List | Glossary Off
Versions: 1 2 3 4 5 6 7 8 9 10 11 12 13 14 15 16 17 18 19 20 21 22 23 24 25 26 27 28 29 30 31 32 33 34 35 36 37 38 39 40 41 42 43 44 45 46 47 48 49 50

191
ASUS43 KFSD 200302
RWRFSD

WEATHER ROUNDUP FOR SE SOUTH DAKOTA/SW MINNESOTA/NW IOWA
NATIONAL WEATHER SERVICE SIOUX FALLS SD
900 PM CST THU JAN 19 2017

NOTE: "FAIR" INDICATES FEW OR NO CLOUDS BELOW 12,000 FEET WITH NO
SIGNIFICANT WEATHER AND OR OBSTRUCTIONS TO VISIBILITY.


SDZ038>040-050-052>070-200400-
SOUTHEAST SOUTH DAKOTA

CITY           SKY/WX    TMP DP  RH WIND       PRES   REMARKS
BROOKINGS      FOG       35  35 100 SE14      29.58S VSB 1/2 WCI  26
CHAMBERLAIN    CLOUDY    38  38  99 SE10      29.48F
HURON          CLOUDY    37  37 100 SE12      29.53F
MADISON        CLOUDY    34  34 100 S8          N/A  WCI  27
MITCHELL       CLOUDY    40  39  97 SE15      29.55F
SIOUX FALLS    DRZL/FOG  38  38 100 SE10      29.60F VSB 1
WINNER         FAIR      37  34  89 S12       29.47S
YANKTON        CLOUDY    39  36  87 SE9       29.58F
$$

MNZ071-072-080-081-089-090-097-098-200400-
SOUTHWEST MINNESOTA

CITY           SKY/WX    TMP DP  RH WIND       PRES   REMARKS
FAIRMONT       FOG       34  33  96 SE8       29.67F VSB 1   WCI  27
JACKSON        FOG       32  32 100 SE6       29.66F VSB 1/4 WCI  26
LUVERNE        FOG       36  34  93 SE9       29.63F VSB 1/2
MARSHALL       CLOUDY    36  35  96 SE13      29.64F FOG
MONTEVIDEO     FOG       34  34 100 S9        29.67S VSB 1   WCI  26
PIPESTONE      FOG       37  36  93 SE9       29.60F VSB 1/2
REDWOOD FALLS  CLOUDY    35  33  92 E5        29.67F FOG
TRACY          CLOUDY    37  37 100 S8        29.64F FOG
WINDOM         CLOUDY    36  36 100 SE8       29.65F FOG
WORTHINGTON    LGT RAIN  34  34 100 SE9       29.65F VSB 1/2 WCI  27
$$

IAZ001>003-012>014-020>022-031-032-NEZ013-014-SDZ071-200400-
NORTHWEST IOWA

CITY           SKY/WX    TMP DP  RH WIND       PRES   REMARKS
CHEROKEE       CLOUDY    36  36 100 SE5       29.66F FOG
DENISON        CLOUDY    37  37 100 E5        29.65S FOG
ESTHERVILLE    FOG       33  33 100 SE6       29.65F VSB 1/4 WCI  28
LE MARS        CLOUDY    37  37 100 SE8       29.64F FOG
ORANGE CITY    FOG       36  36 100 E7        29.63F VSB 1/2
SHELDON        FOG       36  36 100 SE8       29.62F VSB 1/2
SIOUX CITY     FOG       40  39  97 SE9       29.63F VSB 3/4
SPENCER        FOG       36  36 100 SE7       29.66F VSB 3/4
STORM LAKE     FOG       36  34  93 SE7       29.66S VSB<1/4
$$

ABBREVIATIONS USED IN REMARKS
   TC - TEMPERATURE IN CELSIUS
  WCI - WIND CHILL INDEX
   HX - HEAT INDEX
  VSB - VISIBILITY





USA.gov is the U.S. government's official web portal to all federal, state and local government web resources and services.